GW3846 Weather Reports


time (UTC)temp
C
wind
direction
speed
KPH
gust
KPH
rain 1hr
cm
rain 24hr
cm
rain mn
cm
humidity
%
barometer
mb
20260503055010 2 290 1.6 11.3 0.00 0.03 0.00 78 1011.7
20260503054551 2 277 3.2 9.7 0.00 0.03 0.00 78 1011.8
20260503054102 2 280 3.2 8.0 0.00 0.03 0.00 78 1011.7
20260503054006 2 275 1.6 8.0 0.00 0.03 0.00 78 1011.8
20260503053540 2 270 1.6 8.0 0.00 0.03 0.00 78 1011.8
20260503053054 2 273 1.6 8.0 0.00 0.03 0.00 78 1011.8
20260503052534 2 269 1.6 6.4 0.00 0.03 0.00 78 1011.9
20260503052048 2 283 1.6 6.4 0.00 0.03 0.00 79 1011.9
20260503051533 2 291 0.0 6.4 0.00 0.03 0.00 79 1011.9
20260503051045 2 257 3.2 6.4 0.00 0.03 0.00 79 1012.0
20260503050527 2 277 1.6 6.4 0.00 0.03 0.00 79 1012.0
20260503050042 2 282 1.6 4.8 0.00 0.10 0.00 79 1012.0
20260503045520 2 275 0.0 3.2 0.00 0.10 0.00 80 1012.0
20260503045038 2 266 0.0 4.8 0.00 0.10 0.00 80 1012.0
20260503044515 2 290 1.6 4.8 0.00 0.10 0.00 80 1012.1
20260503044034 2 263 0.0 3.2 0.00 0.10 0.00 81 1012.2
20260503043510 2 263 0.0 4.8 0.00 0.10 0.00 81 1012.2
20260503043027 2 280 0.0 6.4 0.00 0.10 0.00 81 1012.2
20260503042505 2 289 0.0 6.4 0.00 0.10 0.00 81 1012.2
20260503042025 2 277 0.0 3.2 0.00 0.10 0.00 81 1012.2
20260503041600 2 279 0.0 6.4 0.00 0.10 0.00 81 1012.2
20260503041506 2 279 0.0 6.4 0.00 0.10 0.00 81 1012.4
20260503041040 2 279 0.0 3.2 0.00 0.10 0.00 81 1012.3
20260503040520 2 275 0.0 3.2 0.00 0.10 0.00 80 1012.2
20260503040050 2 275 0.0 1.6 0.00 0.10 0.10 80 1012.3
20260503035511 2 275 0.0 1.6 0.00 0.10 0.10 80 1012.3
20260503035047 2 275 0.0 4.8 0.00 0.10 0.10 79 1012.3
20260503034557 2 275 0.0 4.8 0.00 0.10 0.10 79 1012.3
20260503034037 2 302 0.0 4.8 0.00 0.10 0.10 79 1012.3
20260503033552 2 265 1.6 4.8 0.00 0.10 0.10 78 1012.4
20260503033035 2 275 0.0 3.2 0.00 0.10 0.10 79 1012.4
20260503032553 3 275 0.0 3.2 0.00 0.10 0.10 79 1012.4
20260503032033 3 276 0.0 4.8 0.00 0.10 0.10 78 1012.3
20260503031507 2 276 0.0 4.8 0.00 0.10 0.10 78 1012.3
20260503031031 2 282 0.0 3.2 0.00 0.10 0.10 78 1012.3
20260503030506 2 281 0.0 3.2 0.00 0.10 0.10 78 1012.3
20260503030027 2 282 0.0 1.6 0.00 0.10 0.10 78 1012.4
20260503025559 2 282 0.0 0.0 0.00 0.10 0.10 78 1012.2
20260503025505 2 282 0.0 0.0 0.00 0.10 0.10 78 1012.4
20260503025043 2 282 0.0 0.0 0.00 0.10 0.10 78 1012.4
20260503024623 2 282 0.0 0.0 0.00 0.10 0.10 77 1012.3
20260503024039 2 282 0.0 0.0 0.00 0.10 0.10 77 1012.3
20260503023556 2 282 0.0 0.0 0.00 0.10 0.10 76 1012.4
20260503023037 2 282 0.0 0.0 0.00 0.10 0.10 75 1012.4
20260503022512 2 282 0.0 0.0 0.00 0.10 0.10 75 1012.3
20260503022032 2 282 0.0 0.0 0.00 0.10 0.10 74 1012.3
20260503021508 3 282 0.0 0.0 0.00 0.10 0.10 73 1012.2
20260503021027 3 282 0.0 0.0 0.00 0.10 0.10 72 1012.3
20260503020503 3 282 0.0 0.0 0.00 0.10 0.10 72 1012.2
20260503020046 3 282 0.0 0.0 0.00 0.10 0.10 71 1012.3
20260503015522 3 281 0.0 0.0 0.00 0.10 0.10 71 1012.3
20260503015055 3 282 0.0 0.0 0.00 0.10 0.10 70 1012.3
20260503014540 4 282 0.0 0.0 0.00 0.10 0.10 69 1012.3
20260503014013 4 282 0.0 0.0 0.00 0.10 0.10 69 1012.3
20260503013550 4 282 0.0 0.0 0.00 0.10 0.10 68 1012.3
20260503013028 5 281 0.0 0.0 0.00 0.10 0.10 67 1012.3
20260503012600 5 282 0.0 0.0 0.00 0.10 0.10 67 1012.3
20260503012501 5 281 0.0 0.0 0.00 0.10 0.10 67 1012.4
20260503012040 5 282 0.0 0.0 0.00 0.10 0.10 67 1012.2
20260503011520 5 282 0.0 1.6 0.00 0.10 0.10 66 1012.3
20260503011052 5 282 0.0 1.6 0.00 0.10 0.10 66 1012.3
20260503010533 5 282 0.0 1.6 0.00 0.10 0.10 65 1012.2
20260503010007 5 282 0.0 1.6 0.00 0.10 0.10 65 1012.3
20260503005543 5 282 0.0 1.6 0.00 0.10 0.10 64 1012.3
20260503005057 6 281 0.0 4.8 0.00 0.10 0.10 62 1012.2
20260503004542 6 310 0.0 4.8 0.00 0.10 0.10 63 1012.3
20260503004052 6 276 1.6 6.4 0.00 0.10 0.10 62 1012.2
20260503003528 6 284 1.6 6.4 0.00 0.10 0.10 61 1012.2
20260503003011 6 325 1.6 9.7 0.00 0.10 0.10 61 1012.1
20260503002547 6 282 1.6 9.7 0.00 0.10 0.10 61 1012.0
20260503002029 6 313 3.2 11.3 0.00 0.10 0.10 60 1012.0
20260503001503 6 273 1.6 4.8 0.00 0.10 0.10 61 1011.9
20260503001044 6 286 0.0 3.2 0.00 0.10 0.10 61 1012.0
20260503000524 6 331 0.0 11.3 0.00 0.10 0.10 60 1011.9
20260503000107 7 278 3.2 11.3 0.00 0.10 0.10 59 1011.9
20260502235536 7 306 3.2 9.7 0.00 0.10 0.10 59 1011.9
20260502235017 7 298 1.6 12.9 0.00 0.10 0.10 57 1011.9
20260502234606 7 261 3.2 12.9 0.00 0.10 0.10 57 1012.0
20260502234031 7 326 1.6 16.1 0.00 0.10 0.10 56 1011.9
20260502233507 7 351 1.6 16.1 0.00 0.10 0.10 55 1011.9
20260502233059 7 288 3.2 22.5 0.00 0.10 0.10 54 1011.8
20260502232520 8 277 4.8 22.5 0.00 0.10 0.10 53 1011.8
20260502232055 8 283 3.2 17.7 0.00 0.10 0.10 53 1011.8
20260502231554 8 344 3.2 12.9 0.00 0.10 0.10 52 1011.7
20260502231055 8 355 3.2 16.1 0.00 0.10 0.10 54 1011.7
20260502230535 8 302 4.8 16.1 0.00 0.10 0.10 53 1011.7
20260502230049 8 343 4.8 14.5 0.00 0.10 0.10 54 1011.8
20260502225528 8 302 3.2 14.5 0.00 0.10 0.10 52 1011.8
20260502225014 8 346 3.2 20.9 0.00 0.10 0.10 52 1011.7
20260502224550 8 319 3.2 22.5 0.00 0.10 0.10 51 1011.5
20260502224026 9 322 1.6 9.7 0.00 0.10 0.10 51 1011.7
20260502223507 9 309 1.6 19.3 0.00 0.10 0.10 49 1011.5
20260502223049 9 9 4.8 20.9 0.00 0.10 0.10 48 1011.5
20260502222521 10 277 4.8 20.9 0.00 0.10 0.10 48 1011.5
20260502222054 9 299 4.8 22.5 0.00 0.10 0.10 48 1011.4
20260502221535 9 12 6.4 22.5 0.00 0.10 0.10 50 1011.3
20260502221057 9 11 3.2 11.3 0.00 0.10 0.10 49 1011.4
20260502220531 9 350 3.2 16.1 0.00 0.10 0.10 52 1011.4
20260502220009 9 279 3.2 16.1 0.00 0.10 0.10 50 1011.4
20260502215531 9 290 8.0 16.1 0.00 0.10 0.10 50 1011.4
20260502215009 10 266 3.2 12.9 0.00 0.10 0.10 49 1011.4
20260502214529 10 336 3.2 12.9 0.00 0.10 0.10 49 1011.4
20260502214010 11 342 4.8 12.9 0.00 0.10 0.10 46 1011.4
20260502213546 11 11 3.2 11.3 0.00 0.10 0.10 47 1011.3
20260502213023 11 5 3.2 16.1 0.00 0.10 0.10 51 1011.3
20260502212558 10 343 3.2 16.1 0.00 0.10 0.10 49 1011.3
20260502212042 10 333 4.8 14.5 0.00 0.10 0.10 50 1011.2
20260502211554 10 348 3.2 17.7 0.00 0.10 0.10 49 1011.2
20260502211032 10 5 3.2 27.4 0.00 0.10 0.10 50 1011.1
20260502210508 10 277 9.7 27.4 0.00 0.10 0.10 45 1011.1
20260502210028 11 276 1.6 17.7 0.00 0.10 0.10 49 1011.0
20260502205603 11 360 6.4 17.7 0.00 0.10 0.10 45 1011.1
20260502205510 11 11 6.4 17.7 0.00 0.10 0.10 46 1011.1
20260502205042 11 271 4.8 14.5 0.00 0.10 0.10 46 1011.1
20260502204520 11 265 3.2 24.1 0.00 0.10 0.10 46 1011.2
20260502204056 11 10 6.4 24.1 0.00 0.10 0.10 48 1011.1
20260502203521 11 273 6.4 19.3 0.00 0.10 0.10 45 1011.1
20260502203100 11 266 6.4 16.1 0.00 0.10 0.10 46 1011.2
20260502202510 11 350 3.2 24.1 0.00 0.10 0.10 46 1011.2
20260502202044 11 286 8.0 22.5 0.00 0.10 0.10 46 1011.1
20260502201524 11 280 8.0 22.5 0.00 0.10 0.10 46 1011.2
20260502201058 11 298 9.7 22.5 0.00 0.10 0.10 44 1011.2
20260502200535 11 338 6.4 20.9 0.00 0.10 0.10 45 1011.4
20260502200013 11 281 11.3 24.1 0.00 0.10 0.10 45 1011.3
20260502195553 11 346 8.0 24.1 0.00 0.10 0.10 45 1011.4
20260502195032 11 306 4.8 20.9 0.00 0.10 0.10 45 1011.4
20260502194510 11 336 6.4 24.1 0.00 0.10 0.10 44 1011.5
20260502194044 11 289 8.0 24.1 0.00 0.10 0.10 44 1011.7
20260502193524 11 355 8.0 20.9 0.00 0.10 0.10 45 1011.4
20260502193100 11 9 4.8 20.9 0.00 0.10 0.10 43 1011.5
20260502193002 11 23 4.8 20.9 0.00 0.10 0.10 44 1011.7
20260502192516 11 279 6.4 20.9 0.00 0.10 0.10 48 1011.6
20260502192047 11 315 3.2 20.9 0.00 0.10 0.10 48 1011.6
20260502191536 11 313 6.4 20.9 0.00 0.10 0.10 47 1011.7
20260502191058 11 276 4.8 16.1 0.00 0.10 0.10 50 1011.7
20260502190538 11 5 4.8 19.3 0.00 0.10 0.10 53 1011.8
20260502190018 11 345 3.2 19.3 0.00 0.10 0.10 50 1011.9
20260502185551 11 338 6.4 19.3 0.00 0.10 0.10 51 1011.8
20260502185025 11 288 8.0 25.7 0.00 0.10 0.10 49 1011.4
20260502184547 11 298 8.0 25.7 0.00 0.10 0.10 51 1011.7
20260502184029 11 288 9.7 32.2 0.00 0.10 0.10 49 1011.5
20260502183503 10 331 14.5 32.2 0.00 0.10 0.10 49 1011.7
20260502183040 11 298 9.7 29.0 0.00 0.10 0.10 47 1011.5
20260502182511 11 267 8.0 37.0 0.00 0.10 0.10 47 1011.5
20260502182047 11 338 12.9 37.0 0.00 0.10 0.10 48 1011.4
20260502181530 11 355 8.0 22.5 0.00 0.10 0.10 48 1011.4
20260502181008 11 317 4.8 14.5 0.00 0.10 0.10 55 1011.4
20260502180532 11 301 4.8 19.3 0.00 0.10 0.10 50 1011.3
20260502164053 10 22 3.2 19.3 0.00 0.10 0.10 57 1011.5
20260502163534 10 355 3.2 19.3 0.00 0.10 0.10 60 1011.6
20260502163010 10 350 6.4 17.7 0.00 0.10 0.10 59 1011.6
20260502162540 10 5 1.6 22.5 0.00 0.10 0.10 60 1011.7
20260502162021 9 295 8.0 24.1 0.00 0.10 0.10 57 1011.7
20260502161557 10 273 4.8 24.1 0.00 0.10 0.10 60 1011.8
20260502161031 10 286 4.8 17.7 0.00 0.10 0.10 61 1011.7
20260502160534 10 338 4.8 17.7 0.00 0.10 0.10 65 1011.6
20260502152023 8 271 3.2 22.5 0.00 0.10 0.10 67 1011.9
20260502151611 9 351 8.0 22.5 0.00 0.10 0.10 67 1011.7
20260502151035 9 290 6.4 19.3 0.00 0.10 0.10 67 1011.7
20260502150517 8 313 3.2 22.5 0.00 0.10 0.10 70 1011.8
20260502130548 7 274 6.4 20.9 0.00 0.10 0.10 78 1012.0
20260502123559 6 336 3.2 19.3 0.00 0.10 0.10 84 1012.0
20260502123501 6 330 6.4 19.3 0.00 0.10 0.10 84 1012.0
20260502123022 6 283 3.2 12.9 0.00 0.10 0.10 87 1012.0
20260502122555 6 317 1.6 12.9 0.00 0.10 0.10 87 1012.0
20260502122017 6 313 1.6 14.5 0.00 0.10 0.10 88 1012.1
20260502121554 6 292 1.6 11.3 0.00 0.10 0.10 89 1012.0
20260502121013 6 284 4.8 11.3 0.00 0.10 0.10 89 1012.1
20260502120549 5 284 1.6 14.5 0.00 0.10 0.10 90 1012.2
20260502115545 5 292 1.6 11.3 0.00 0.10 0.10 91 1012.0
20260502115100 5 319 0.0 16.1 0.00 0.10 0.10 91 1012.0
20260502115002 5 342 3.2 16.1 0.00 0.10 0.10 91 1012.0
20260502114539 5 347 4.8 16.1 0.00 0.10 0.10 90 1012.1
20260502114058 5 298 1.6 14.5 0.00 0.10 0.10 91 1012.2
20260502113540 5 314 0.0 14.5 0.00 0.10 0.10 91 1012.2
20260502113056 5 310 0.0 12.9 0.00 0.10 0.10 91 1012.2
20260502112538 5 315 1.6 11.3 0.00 0.10 0.10 92 1012.0
20260502112058 5 297 1.6 12.9 0.00 0.10 0.10 92 1011.9
20260502111536 5 293 3.2 11.3 0.00 0.10 0.10 92 1011.8
20260502111011 5 321 1.6 12.9 0.00 0.10 0.10 92 1011.8
20260502110549 5 284 1.6 12.9 0.00 0.10 0.10 92 1011.8
20260502110023 5 263 1.6 12.9 0.00 0.10 0.10 92 1011.7
20260502105558 5 5 1.6 9.7 0.00 0.10 0.10 92 1011.8
20260502105502 5 267 0.0 6.4 0.00 0.10 0.10 92 1011.7
20260502105021 5 312 0.0 12.9 0.00 0.10 0.10 92 1011.5
20260502104558 5 288 1.6 14.5 0.00 0.10 0.10 92 1011.6
20260502104019 5 281 4.8 14.5 0.00 0.10 0.10 92 1011.5
20260502103555 5 288 3.2 12.9 0.00 0.10 0.10 92 1011.5
20260502103021 5 283 3.2 11.3 0.00 0.10 0.10 92 1011.5
20260502102551 5 267 3.2 14.5 0.00 0.10 0.10 92 1011.3
20260502102015 5 318 6.4 24.1 0.00 0.10 0.10 92 1011.4
20260502101555 5 290 4.8 24.1 0.00 0.10 0.10 92 1011.4
20260502101014 5 300 4.8 11.3 0.00 0.10 0.10 92 1011.4
20260502100547 5 267 1.6 16.1 0.00 0.10 0.10 92 1011.4
20260502091528 5 278 3.2 11.3 0.03 0.10 0.10 94 1011.0
20260502091009 5 261 0.0 4.8 0.03 0.10 0.10 94 1011.0
20260502090542 5 281 0.0 3.2 0.03 0.10 0.10 94 1011.0
20260502071506 6 265 0.0 4.8 0.00 0.08 0.08 93 1010.7
20260502071026 6 266 1.6 3.2 0.00 0.08 0.08 92 1010.5
20260502070503 6 304 0.0 3.2 0.00 0.08 0.08 93 1010.4
20260502070025 7 274 0.0 4.8 0.00 0.08 0.08 93 1010.6
20260502065559 7 257 0.0 4.8 0.00 0.08 0.08 93 1010.7
20260502065501 7 257 0.0 4.8 0.00 0.08 0.08 93 1010.7
20260502065020 7 274 0.0 4.8 0.00 0.08 0.08 93 1010.9
20260502064608 7 274 1.6 4.8 0.00 0.08 0.08 93 1010.8
20260502064018 7 264 0.0 3.2 0.00 0.08 0.08 93 1010.8
20260502063553 7 257 0.0 3.2 0.00 0.08 0.08 93 1010.9